Location: Newark
(32.9900°N, 111.5400°W)
Time: 02:52:56
(UTC+00:00)

N. Korean satellite - Pass Details

Date: 22 November 2019
Orbit: 456 x 506 km, 97.2° (Epoch: 07 December)

Event Time Altitude Azimuth Distance (km) Brightness Sun altitude
Rises 01:15:19 0° 194° (SSW) 2,546 10.7 -11.4°
Reaches altitude 10° 01:17:39 10° 209° (SSW) 1,679 10.0 -11.9°
Maximum altitude 01:20:37 24° 264° (W) 1,074 9.3 -12.5°
Drops below altitude 10° 01:23:37 10° 319° (NW) 1,709 9.7 -13.1°
Sets 01:26:01 0° 334° (NNW) 2,603 10.4 -13.6°
